Time,TemperatureF,DewpointF,PressureIn,WindDirection,WindDirectionDegrees,WindSpeedMPH,WindSpeedGustMPH,Humidity,HourlyPrecipIn,Conditions,Clouds,dailyrainin,SoftwareType,DateUTC
2016-02-10 00:11:00,25.3,23.0,29.66,South,185,5.0,8.0,91,0.00,,,0.00,weatherlink.com 1.10,2016-02-10 05:11:00,
2016-02-10 00:26:00,25.2,23.0,29.66,SSW,202,3.0,6.0,91,0.00,,,0.00,weatherlink.com 1.10,2016-02-10 05:26:00,
2016-02-10 00:41:00,25.2,23.0,29.66,SSW,200,3.0,6.0,91,0.00,,,0.00,weatherlink.com 1.10,2016-02-10 05:41:00,
2016-02-10 00:56:00,25.2,23.0,29.66,South,184,6.0,8.0,91,0.00,,,0.00,weatherlink.com 1.10,2016-02-10 05:56:00,
2016-02-10 01:11:00,25.1,23.0,29.66,SW,217,3.0,7.0,90,0.00,,,0.00,weatherlink.com 1.10,2016-02-10 06:11:00,
2016-02-10 01:26:00,25.1,23.0,29.66,SW,225,3.0,7.0,90,0.00,,,0.00,weatherlink.com 1.10,2016-02-10 06:26:00,
2016-02-10 01:41:00,24.9,22.0,29.66,SSW,201,2.0,9.0,90,0.00,,,0.00,weatherlink.com 1.10,2016-02-10 06:41:00,
2016-02-10 01:56:00,24.7,23.0,29.65,SW,217,6.0,8.0,91,0.00,,,0.00,weatherlink.com 1.10,2016-02-10 06:56:00,
2016-02-10 02:11:00,24.5,23.0,29.65,SSW,194,5.0,8.0,92,0.00,,,0.00,weatherlink.com 1.10,2016-02-10 07:11:00,
2016-02-10 02:27:00,24.4,22.0,29.65,SSW,206,4.0,10.0,92,0.00,,,0.00,weatherlink.com 1.10,2016-02-10 07:27:00,
2016-02-10 02:42:00,24.4,22.0,29.65,SW,236,2.0,9.0,92,0.00,,,0.00,weatherlink.com 1.10,2016-02-10 07:42:00,
2016-02-10 02:57:00,24.5,23.0,29.65,SW,232,3.0,7.0,92,0.00,,,0.00,weatherlink.com 1.10,2016-02-10 07:57:00,
2016-02-10 03:12:00,24.6,23.0,29.66,SSW,205,3.0,7.0,92,0.00,,,0.00,weatherlink.com 1.10,2016-02-10 08:12:00,
2016-02-10 03:27:00,24.8,23.0,29.66,SSW,212,2.0,5.0,92,0.00,,,0.00,weatherlink.com 1.10,2016-02-10 08:27:00,
2016-02-10 03:42:00,25.1,23.0,29.66,SW,229,3.0,5.0,90,0.00,,,0.00,weatherlink.com 1.10,2016-02-10 08:42:00,
2016-02-10 03:57:00,25.2,23.0,29.66,SW,236,3.0,9.0,90,0.00,,,0.00,weatherlink.com 1.10,2016-02-10 08:57:00,
2016-02-10 04:12:00,25.5,23.0,29.66,SW,214,3.0,7.0,88,0.00,,,0.00,weatherlink.com 1.10,2016-02-10 09:12:00,
2016-02-10 04:27:00,25.6,23.0,29.66,SW,222,1.0,7.0,88,0.00,,,0.00,weatherlink.com 1.10,2016-02-10 09:27:00,
2016-02-10 04:42:00,25.8,22.0,29.67,West,281,6.0,12.0,86,0.00,,,0.00,weatherlink.com 1.10,2016-02-10 09:42:00,
2016-02-10 04:57:00,26.1,22.0,29.67,West,274,12.0,13.0,85,0.00,,,0.00,weatherlink.com 1.10,2016-02-10 09:57:00,
2016-02-10 05:12:00,26.5,22.0,29.68,WNW,287,10.0,13.0,83,0.00,,,0.00,weatherlink.com 1.10,2016-02-10 10:12:00,
2016-02-10 05:27:00,26.7,22.0,29.68,WNW,294,5.0,13.0,81,0.00,,,0.00,weatherlink.com 1.10,2016-02-10 10:27:00,
2016-02-10 05:57:00,26.6,22.0,29.69,West,267,9.0,16.0,81,0.00,,,0.00,weatherlink.com 1.10,2016-02-10 10:57:00,
2016-02-10 06:12:00,26.4,21.0,29.69,WSW,250,8.0,17.0,81,0.00,,,0.00,weatherlink.com 1.10,2016-02-10 11:12:00,
2016-02-10 06:27:00,26.2,21.0,29.70,WNW,294,8.0,15.0,81,0.00,,,0.00,weatherlink.com 1.10,2016-02-10 11:27:00,
2016-02-10 06:42:00,26.1,21.0,29.70,East,96,3.0,12.0,81,0.00,,,0.00,weatherlink.com 1.10,2016-02-10 11:42:00,